Volver al catálogo

STARLINK-34272

ActivoComunicacionesVLEO
NORAD 64274·PAYLOAD·🇺🇸 United States

Lanzado Jun 4, 2025 desde Vandenberg Space Force Base

Loading…

Próximos Pases (próximas 24 horas)

TLE

ActualizadoSource: CelesTrak SupGP

Época: Sep 14, 2026, 21:18 UTC

1 64274C 25120U   26257.88798611 -.00003551  00000+0 -10492-3 0  2574
2 64274  53.1593 315.6368 0001256  84.6357 324.0537 15.34387521    14

Sigue STARLINK-34272 en tiempo real con AllMySat

Download on the App Store